Weather Roundup
Issued by NWS

Home | Current Version | Previous Version | Text Only | Print | Product List | Glossary On
Versions: 1 2 3 4 5 6 7 8 9 10 11 12 13 14 15 16 17 18 19 20 21 22 23 24 25 26 27 28 29 30 31 32 33 34 35 36 37 38 39 40 41 42 43 44 45 46 47 48 49 50
000
NZUS93 KARX 232359
HRRWXR

CURRENT HOURLY OBSERVATIONS ACROSS
MUCH OF THE UPPER MISSISSIPPI VALLEY
NATIONAL WEATHER SERVICE LA CROSSE WI
700 PM CDT SAT MAY 23 2015


...SOUTHEAST MINNESOTA...


CITY           SKY/WX    TMP DP  RH WIND       PRES   REMARKS
ROCHESTER      CLOUDY    72  43  35 S7        30.14F
ROCHESTER/MAYO CLOUDY    73  42  32 SE5       30.14S
WINONA         CLOUDY    73  50  43 SE5       30.13F
AUSTIN         CLOUDY    72  46  40 S7        30.13S
ALBERT LEA     CLOUDY    70  50  49 SE9       30.13S
DODGE CENTER   CLOUDY    73  43  33 S8        30.14S
PRESTON        CLOUDY    72  43  35 S8        30.15F
OWATONNA       CLOUDY    73  43  33 S7        30.12F
FARIBAULT      CLOUDY    73  43  33 E3        30.12F
$$

...ELSEWHERE IN MINNESOTA...


CITY           SKY/WX    TMP DP  RH WIND       PRES   REMARKS
MINNEAPOLIS    PTSUNNY   68  46  45 NE13      30.14F
INTNL FALLS    SUNNY     77  34  21 W9        30.07F
DULUTH         MOSUNNY   71  42  35 SW18      30.14F
RED WING       PTSUNNY   73  41  31 E3        30.13F
REDWOOD FALLS  CLOUDY    66  50  56 NE7       30.10F
MANKATO        CLOUDY    72  46  40 S16G24    30.12S
WORTHINGTON    CLOUDY    66  45  45 S12       30.10F
FAIRMONT       CLOUDY    66  46  48 SE14      30.12F
$$

...SOUTHWEST WISCONSIN...


CITY           SKY/WX    TMP DP  RH WIND       PRES   REMARKS
LA CROSSE      PTSUNNY   77  44  30 SE7       30.13F
PRAIRIE DU CHI MOSUNNY   77  37  23 S9        30.14F
BOSCOBEL       CLOUDY    78  43  28 SW5       30.15F
LONE ROCK      NOT AVBL
PLATTEVILLE    CLOUDY    75  43  31 S9        30.17F
FORT MC COY    CLOUDY    74  40  29 S3        30.16F
VIROQUA        FAIR      75  41  29 S5        30.17F
WIS DELLS      MOSUNNY   74  36  25 SW7       30.17S
$$

...ELSEWHERE IN WISCONSIN...


CITY           SKY/WX    TMP DP  RH WIND       PRES   REMARKS
MILWAUKEE      MOSUNNY   66  40  38 SE10      30.19F
MADISON        PTSUNNY   75  40  28 SW5       30.17F
GREEN BAY      MOSUNNY   77  38  24 S9        30.16F
EAU CLAIRE     NOT AVBL
BLACK RVR FLS  CLOUDY    75  39  27 CALM      30.15F
MEDFORD        CLOUDY    69  40  34 W5        30.19S
WAUSAU         CLOUDY    72  38  29 NW9       30.16F
WIS RAPIDS     CLOUDY    75  36  24 SW6       30.17F
MARSHFIELD     PTSUNNY   72  43  35 NW3       30.17F
RICE LAKE      CLOUDY    65  47  51 N3        30.20F
$$

...NORTHEAST IOWA...


CITY           SKY/WX    TMP DP  RH WIND       PRES   REMARKS
DECORAH        PTSUNNY   73  45  35 S8G15     30.15S
MASON CITY     CLOUDY    72  46  39 S12       30.13F
CHARLES CITY   MOSUNNY   75  45  33 S16       30.13F
OELWEIN        SUNNY     75  46  35 S14G21    30.15F
$$

...ELSEWHERE IN IOWA...


CITY           SKY/WX    TMP DP  RH WIND       PRES   REMARKS
DES MOINES     CLOUDY    72  53  51 S6        30.10F
IOWA CITY      PTSUNNY   76  47  35 S14       30.15F
FORT DODGE     CLOUDY    68  52  56 SE8       30.12F
$$

...NORTHERN ILLINOIS...


CITY           SKY/WX    TMP DP  RH WIND       PRES   REMARKS
CHICAGO-OHARE  MOSUNNY   79  38  22 S10       30.18F
CHICAGO-MIDWAY PTSUNNY   77  43  29 E10       30.19S
MOLINE         PTSUNNY   77  45  32 S10       30.14F
ROCKFORD       PTSUNNY   76  40  27 S13       30.19F
PEORIA         CLOUDY    78  45  30 S9        30.17F
$$

NOTE: "FAIR" INDICATES FEW OR NO CLOUDS BELOW 12,000 FEET WITH NO
SIGNIFICANT WEATHER AND/OR OBSTRUCTIONS TO VISIBILITY. WIND
SPEEDS ARE IN MILES-PER-HOUR.



USA.gov is the U.S. government's official web portal to all federal, state and local government web resources and services.